Torna al catalogo

SL-8 DEB

AttivoLEO
NORAD 22198·DEBRIS·🇷🇺 Russia

Lanciato Feb 12, 1991 da Plesetsk Cosmodrome

Loading…

Prossimi Passaggi (prossime 24 ore)

TLE

In scadenzaSource: Space-Track

Epoca: Sep 11, 2026, 16:44 UTC

1 22198U 91009CS  26254.69780412  .00000031  00000-0  38106-3 0  9992
2 22198  73.9198 348.3959 0146925 303.9339 210.6332 12.30660193594870

Traccia SL-8 DEB in tempo reale con AllMySat

Download on the App Store